Location: ASU Dark Sky Observatory
(36.2504°N, 81.4125°W)
Time: 11:58:02
(UTC-04:00)

Amateur Radio Satellites - All Passes

Search period start: 28 April 2015 11:28
Search period end: 29 April 2015 11:28
Location: ASU Dark Sky Observatory, 36.2504°N, 81.4125°W

Satellite Date Start Highest point End Downlink Frequencies (MHz)
Time Altitude Azimuth
50 SAT 28 Apr 11:28:26 11:31:28 21° 94° (E) 11:34:33 437.505
SEEDS 28 Apr 11:28:46 11:31:25 16° 291° (WNW) 11:33:52 437.485
Oscar 11 28 Apr 11:31:52 11:36:02 45° 286° (WNW) 11:40:09 145.826/435.025
QB50P2 28 Apr 11:33:46 11:37:55 61° 75° (ENE) 11:42:07 145.880/145.840
ANTELSAT 28 Apr 11:34:51 11:39:20 61° 260° (W) 11:43:58 437.575/2403.000
AAUSAT CUBESAT 2 28 Apr 11:38:38 11:41:25 17° 291° (WNW) 11:44:03 437.432
ZACube-1 28 Apr 11:39:06 11:43:42 73° 284° (WNW) 11:48:15 437.345
YUBILEINY 28 Apr 11:48:23 11:57:13 75° 278° (W) 12:06:03 435.215
NANOSAT C BR1 28 Apr 11:49:45 11:53:57 87° 257° (WSW) 11:58:11 145.865
CUBEBUG 1 28 Apr 11:50:53 11:53:40 17° 93° (E) 11:56:35 437.445
VELOX 1 28 Apr 11:53:07 11:57:16 39° 98° (E) 12:01:27 145.980
POPSAT HIP 1 28 Apr 11:54:20 11:58:31 77° 258° (WSW) 12:02:46 437.405
BUGSAT 1 28 Apr 12:03:21 12:07:22 88° 256° (WSW) 12:11:25 437.445
AIST 1 28 Apr 12:07:21 12:11:32 53° 81° (E) 12:15:43
DX 1 28 Apr 12:10:19 12:14:37 56° 286° (WNW) 12:18:53 434.975-435.025
SO-50 28 Apr 12:10:36 12:15:02 43° 306° (NW) 12:19:36 436.795
AISAT 28 Apr 12:11:58 12:16:26 68° 102° (ESE) 12:20:53 437.250
ISS 28 Apr 12:17:32 12:20:20 26° 327° (NNW) 12:23:09 145.825
DUCHIFAT 1 28 Apr 12:23:14 12:27:04 34° 263° (W) 12:30:55 145.980
TIGRISAT 28 Apr 12:25:19 12:28:29 18° 268° (W) 12:31:33 435.000
POLYITAN 1 28 Apr 12:26:02 12:29:49 31° 264° (W) 12:33:34 437.675
AIST 2 28 Apr 12:26:45 12:30:47 42° 55° (NE) 12:34:46 435.215
CUBEBUG 2 28 Apr 12:28:45 12:31:40 16° 293° (WNW) 12:34:21 437.445
DELFI C3 28 Apr 12:31:00 12:32:44 12° 292° (WNW) 12:34:16 145.870
UNISAT 6 28 Apr 12:31:31 12:34:16 15° 270° (W) 12:36:50 437.425
Cosmos 2504 28 Apr 12:32:59 12:38:44 21° 83° (E) 12:44:54 435.465 / 435.565
BEESAT 3 28 Apr 12:41:03 12:44:37 29° 247° (WSW) 12:48:06 437.485
Oscar 19 28 Apr 12:42:54 12:44:33 12° 63° (ENE) 12:46:31 437.125/150
QB50P1 28 Apr 12:43:33 12:46:44 20° 266° (W) 12:49:48 145.935-145.965
BEESAT 2 28 Apr 12:46:15 12:49:56 31° 246° (WSW) 12:53:30 435.950
RS-15 28 Apr 12:46:46 12:52:54 18° 102° (ESE) 12:59:53 29.354- 29.394
HUMSAT D 28 Apr 12:46:55 12:50:31 26° 289° (WNW) 12:54:01 437.325/437.525
Cosmos 2491 28 Apr 12:48:00 12:52:36 15° 280° (W) 12:56:31 435.465 / 435.565
UWE-3 28 Apr 12:49:44 12:51:22 11° 294° (WNW) 12:52:44 435.000/436.395/437.385
UKube-1 28 Apr 12:49:57 12:53:20 22° 290° (WNW) 12:56:36 .
FUNcube-1 28 Apr 12:50:36 12:52:56 13° 293° (WNW) 12:55:02 145.935
SPROUT 28 Apr 12:59:12 13:02:49 26° 95° (E) 13:06:29 437.525
ESTCUBE 1 28 Apr 13:01:21 13:05:48 63° 285° (WNW) 13:10:13 437.505/2401.250
50 SAT 28 Apr 13:02:54 13:06:15 25° 289° (WNW) 13:09:28 437.505
CUBEBUG 1 28 Apr 13:26:09 13:30:11 36° 287° (WNW) 13:34:11 437.445
VELOX 1 28 Apr 13:30:35 13:33:33 17° 292° (WNW) 13:36:23 145.980
ITUPSAT 1 28 Apr 13:50:43 13:51:08 10° 89° (E) 13:51:54 437.325
AISAT 28 Apr 13:51:37 13:52:32 10° 295° (WNW) 13:53:09 437.250
YUBILEINY 28 Apr 13:52:00 13:55:56 13° 301° (WNW) 13:59:08 435.215
TISAT 1 28 Apr 13:52:20 13:56:37 87° 102° (ESE) 14:00:53 437.305
AIST 2 28 Apr 14:06:34 14:09:03 15° 250° (WSW) 14:11:19 435.215
Gurwin Techsat 1B 28 Apr 14:09:18 14:13:15 22° 68° (ENE) 14:17:21 435.225
BEESAT 28 Apr 14:16:46 14:20:24 22° 94° (E) 14:24:09 436.000
Oscar 19 28 Apr 14:18:10 14:23:19 78° 257° (WSW) 14:28:32 437.125/150
SWISSCUBE 28 Apr 14:19:35 14:23:31 26° 95° (E) 14:27:31 437.505
Cosmos 2504 28 Apr 14:22:30 14:31:23 77° 278° (W) 14:40:11 435.465 / 435.565
SPROUT 28 Apr 14:35:19 14:38:49 23° 289° (WNW) 14:42:12 437.525
RS-15 28 Apr 14:53:03 15:03:58 89° 118° (ESE) 15:15:06 29.354- 29.394
ITAMSAT 1 28 Apr 14:59:40 15:04:51 80° 74° (ENE) 15:10:02 435.822/435.867
KKS-1 28 Apr 15:01:55 15:02:02 10° 89° (E) 15:02:29 437.445
VERMONT LUNAR 28 Apr 15:13:32 15:16:27 28° 149° (SSE) 15:19:25 437.305
ITUPSAT 1 28 Apr 15:24:51 15:29:36 68° 285° (WNW) 15:34:19 437.325
JAS-2 28 Apr 15:41:41 15:48:28 35° 68° (ENE) 15:55:09 435.910
STARS 28 Apr 15:46:05 15:49:27 21° 94° (E) 15:52:55 437.465
Gurwin Techsat 1B 28 Apr 15:47:59 15:53:00 41° 262° (W) 15:58:00 435.225
BEESAT 28 Apr 15:54:04 15:58:20 33° 289° (WNW) 16:02:31 436.000
AO-7 28 Apr 15:56:01 16:03:49 49° 66° (ENE) 16:11:43 29.400- 29.500
SWISSCUBE 28 Apr 15:57:17 16:01:21 28° 290° (WNW) 16:05:20 437.505
GONETS M04 28 Apr 16:12:42 16:20:19 36° 87° (E) 16:28:12
PHONESAT 2.4 28 Apr 16:13:13 16:16:20 29° 149° (SSE) 16:19:30 2401.200-2431.200
HORYU 2 28 Apr 16:15:36 16:20:05 79° 76° (ENE) 16:24:37 437.375
Cosmos 2504 28 Apr 16:21:57 16:26:29 14° 299° (WNW) 16:30:18 435.465 / 435.565
KKS-1 28 Apr 16:34:43 16:39:10 63° 285° (WNW) 16:43:36 437.445
CUSAT 1 28 Apr 16:48:02 16:50:38 18° 84° (E) 16:53:53 437.405
VERMONT LUNAR 28 Apr 16:50:26 16:53:46 63° 344° (NNW) 16:57:08 437.305
PCSat 28 Apr 17:02:18 17:07:00 30° 54° (NE) 17:11:46 145.827
RS-15 28 Apr 17:09:03 17:18:05 27° 324° (NW) 17:27:03 29.354- 29.394
ISS 28 Apr 17:10:55 17:12:58 16° 26° (NNE) 17:15:04 145.825
STARS 28 Apr 17:22:02 17:25:57 30° 289° (WNW) 17:29:47 437.465
MOZHAYETS 4 28 Apr 17:24:52 17:28:45 27° 95° (E) 17:32:39
JAS-2 28 Apr 17:25:43 17:33:17 48° 262° (W) 17:40:34 435.910
DANDE 28 Apr 17:47:27 17:50:47 66° 96° (E) 17:55:17 436.750
AO-7 28 Apr 17:49:28 17:56:51 34° 263° (W) 18:04:05 29.400- 29.500
PHONESAT 2.4 28 Apr 17:50:51 17:54:25 66° 343° (NNW) 17:58:00 2401.200-2431.200
GONETS M04 28 Apr 18:08:45 18:17:02 44° 285° (WNW) 18:25:20
CUTE-I 28 Apr 18:13:39 18:18:15 32° 70° (ENE) 18:22:57 437.470
Cubesat XI-IV 28 Apr 18:23:56 18:28:50 40° 71° (ENE) 18:33:49 437.490
VERMONT LUNAR 28 Apr 18:28:20 18:31:31 37° 0° (N) 18:34:43 437.305
CUSAT 1 28 Apr 18:29:45 18:33:03 26° 291° (WNW) 18:37:08 437.405
Cosmos 2499 28 Apr 18:34:29 18:43:00 54° 91° (E) 18:51:21 435.465 / 435.565
PCSat 28 Apr 18:45:34 18:50:27 34° 250° (WSW) 18:55:15 145.827
ISS 28 Apr 18:46:24 18:49:38 66° 224° (SW) 18:52:51 145.825
MOZHAYETS 4 28 Apr 19:02:08 19:05:53 25° 290° (WNW) 19:09:31
SO-50 28 Apr 19:05:58 19:07:48 12° 41° (NE) 19:09:51 436.795
CUBESAT XI-V 28 Apr 19:10:24 19:14:20 28° 95° (E) 19:18:21 437.345
AUBIESAT-1 28 Apr 19:20:31 19:23:32 22° 98° (E) 19:26:27 437.475
PHONESAT 2.4 28 Apr 19:29:33 19:32:57 40° 0° (N) 19:36:23 2401.200-2431.200
RS-15 28 Apr 19:31:09 19:36:09 13° 359° (N) 19:41:13 29.354- 29.394
CUTE-I 28 Apr 19:53:45 19:58:20 28° 265° (W) 20:02:50 437.470
PRISM 28 Apr 19:54:21 19:58:19 48° 100° (E) 20:02:17 437.425
HO-68 28 Apr 19:56:08 20:01:07 21° 61° (ENE) 20:06:22 435.675
GOMX 1 28 Apr 19:57:30 19:57:37 10° 65° (ENE) 19:58:01 467.674
Cubesat XI-IV 28 Apr 20:04:57 20:09:07 22° 266° (W) 20:13:08 437.490
VERMONT LUNAR 28 Apr 20:05:53 20:09:15 68° 17° (NNE) 20:12:37 437.305
M-CUBED/EXP-1 PRIME 28 Apr 20:15:18 20:19:18 59° 290° (WNW) 20:22:56 437.505
DOVE 4 28 Apr 20:16:42 20:17:59 11° 65° (ENE) 20:19:31 437.250
BRITE-PL 28 Apr 20:23:17 20:26:59 32° 72° (ENE) 20:30:52 437.365/2234.400
Cosmos 2499 28 Apr 20:28:51 20:36:33 31° 289° (WNW) 20:43:50 435.465 / 435.565
STRAND 1 28 Apr 20:36:14 20:41:22 82° 284° (WNW) 20:46:28 437.568
SEEDS 28 Apr 20:42:10 20:45:15 20° 70° (ENE) 20:48:27 437.485
SO-50 28 Apr 20:44:13 20:49:12 83° 60° (ENE) 20:54:05 436.795
CUBESAT XI-V 28 Apr 20:47:56 20:51:41 24° 290° (WNW) 20:55:22 437.345
AAUSAT CUBESAT 2 28 Apr 20:51:27 20:54:12 18° 69° (ENE) 20:57:05 437.432
AUBIESAT-1 28 Apr 20:55:09 20:58:19 22° 296° (WNW) 21:01:12 437.475
CANX-2 28 Apr 20:55:20 20:59:19 38° 73° (ENE) 21:03:21 2200.000
CUTE 1.7 + AOD 2 28 Apr 21:03:51 21:07:55 43° 74° (ENE) 21:12:02 437.475
PHONESAT 2.4 28 Apr 21:07:54 21:11:29 69° 17° (NNE) 21:15:03 2401.200-2431.200
GOMX 1 28 Apr 21:31:03 21:35:13 63° 260° (W) 21:39:36 467.674
PRISM 28 Apr 21:31:43 21:33:24 12° 293° (WNW) 21:34:54 437.425
DELFI C3 28 Apr 21:39:46 21:42:45 20° 70° (ENE) 21:45:50 145.870
HO-68 28 Apr 21:41:06 21:48:16 69° 257° (WSW) 21:55:28 435.675
VERMONT LUNAR 28 Apr 21:43:40 21:46:33 26° 212° (SSW) 21:49:24 437.305
COMPASS 1 28 Apr 21:45:33 21:49:48 89° 274° (W) 21:54:04 437.405
RS-15 28 Apr 21:45:34 21:54:28 26° 34° (NE) 22:04:01 29.354- 29.394
CUBEBUG 2 28 Apr 21:46:44 21:50:31 30° 71° (ENE) 21:54:30 437.445
DOVE 4 28 Apr 21:51:02 21:55:13 58° 261° (W) 21:59:40 437.250
Cosmos 2491 28 Apr 21:52:02 21:57:55 22° 83° (E) 22:04:15 435.465 / 435.565
O/OREOS (USA 219) 28 Apr 22:01:55 22:06:20 50° 106° (ESE) 22:10:46 437.305
YUBILEINY 28 Apr 22:02:08 22:10:30 49° 76° (ENE) 22:18:52 435.215
HUMSAT D 28 Apr 22:02:17 22:04:05 13° 67° (ENE) 22:06:06 437.325/437.525
BRITE-PL 28 Apr 22:03:00 22:05:44 16° 269° (W) 22:08:22 437.365/2234.400
UWE-3 28 Apr 22:05:19 22:09:22 39° 73° (ENE) 22:13:36 435.000/436.395/437.385
FUNcube-1 28 Apr 22:05:58 22:09:45 30° 72° (ENE) 22:13:42 145.935
UKube-1 28 Apr 22:06:47 22:09:40 18° 69° (ENE) 22:12:41 .
CINEMA 3 28 Apr 22:09:52 22:14:13 75° 259° (W) 22:18:47 145.822/145.860
SEEDS 28 Apr 22:17:06 22:20:53 30° 264° (W) 22:24:38 437.485
Oscar 11 28 Apr 22:23:32 22:27:53 84° 258° (WSW) 22:32:16 145.826/435.025
AAUSAT CUBESAT 2 28 Apr 22:25:45 22:29:35 33° 263° (W) 22:33:26 437.432
ZACube-1 28 Apr 22:32:13 22:36:31 63° 75° (ENE) 22:40:57 437.345
CANX-2 28 Apr 22:32:47 22:35:27 15° 269° (W) 22:37:57 2200.000
CUTE 1.7 + AOD 2 28 Apr 22:41:50 22:44:07 14° 270° (W) 22:46:11 437.475
PHONESAT 2.4 28 Apr 22:46:27 22:49:33 27° 212° (SSW) 22:52:37 2401.200-2431.200
CUBEBUG 1 28 Apr 22:46:48 22:47:40 11° 66° (ENE) 22:48:46 437.445
VELOX 1 28 Apr 22:48:41 22:52:15 26° 70° (ENE) 22:55:56 145.980
UNISAT 6 28 Apr 22:49:45 22:51:23 12° 89° (E) 22:53:18 437.425
DX 1 28 Apr 23:03:03 23:07:23 89° 78° (ENE) 23:11:44 434.975-435.025
AISAT 28 Apr 23:07:20 23:11:28 43° 73° (ENE) 23:15:40 437.250
DELFI C3 28 Apr 23:14:16 23:17:46 26° 264° (W) 23:21:12 145.870
QB50P2 28 Apr 23:23:40 23:25:25 13° 90° (E) 23:27:24 145.880/145.840
CUBEBUG 2 28 Apr 23:23:51 23:27:16 21° 267° (W) 23:30:41 437.445
ANTELSAT 28 Apr 23:29:49 23:34:05 35° 97° (E) 23:38:18 437.575/2403.000
HUMSAT D 28 Apr 23:35:20 23:39:26 49° 261° (W) 23:43:37 437.325/437.525
NANOSAT C BR1 28 Apr 23:38:18 23:41:14 18° 93° (E) 23:44:18 145.865
UKube-1 28 Apr 23:41:39 23:45:35 34° 262° (W) 23:49:31 .
FUNcube-1 28 Apr 23:42:50 23:46:09 20° 267° (W) 23:49:26 145.935
POPSAT HIP 1 28 Apr 23:42:54 23:46:07 21° 94° (E) 23:49:27 437.405
UWE-3 28 Apr 23:43:17 23:46:09 16° 269° (W) 23:48:51 435.000/436.395/437.385
O/OREOS (USA 219) 28 Apr 23:43:23 23:46:07 15° 304° (WNW) 23:48:39 437.305
50 SAT 28 Apr 23:44:41 23:48:38 62° 260° (W) 23:52:38 437.505
Cosmos 2491 28 Apr 23:45:21 23:54:03 70° 280° (W) 00:02:49 435.465 / 435.565
BUGSAT 1 28 Apr 23:49:13 23:51:49 16° 93° (E) 23:54:35 437.445
SPROUT 28 Apr 23:52:05 23:54:29 15° 68° (ENE) 23:57:04 437.525
RS-15 28 Apr 23:57:23 00:09:04 82° 59° (ENE) 00:21:14 29.354- 29.394
ESTCUBE 1 28 Apr 23:58:07 00:02:38 85° 77° (ENE) 00:07:09 437.505/2401.250
YUBILEINY 28 Apr 23:59:32 00:07:03 32° 274° (W) 00:14:18 435.215
DUCHIFAT 1 29 Apr 00:10:14 00:14:19 43° 99° (E) 00:18:25 145.980
POLYITAN 1 29 Apr 00:13:34 00:17:46 50° 99° (E) 00:21:59 437.675
TIGRISAT 29 Apr 00:18:01 00:22:42 69° 285° (WNW) 00:27:17 435.000
CUBEBUG 1 29 Apr 00:19:18 00:23:34 61° 259° (W) 00:27:52 437.445
Cosmos 2504 29 Apr 00:20:00 00:26:51 33° 72° (ENE) 00:33:25 435.465 / 435.565
UNISAT 6 29 Apr 00:24:01 00:28:38 57° 285° (WNW) 00:33:09 437.425
VELOX 1 29 Apr 00:25:09 00:28:47 24° 265° (W) 00:32:20 145.980
JUGNU 29 Apr 00:29:45 00:32:22 13° 171° (S) 00:35:02 437.505
QB50P1 29 Apr 00:29:56 00:34:14 79° 102° (ESE) 00:38:32 145.935-145.965
AIST 1 29 Apr 00:34:12 00:38:07 36° 92° (E) 00:42:04
TISAT 1 29 Apr 00:41:59 00:45:57 44° 74° (ENE) 00:49:58 437.305
AISAT 29 Apr 00:45:51 00:48:20 14° 269° (W) 00:50:37 437.250
QB50P2 29 Apr 00:57:29 01:01:38 47° 286° (WNW) 01:05:45 145.880/145.840
ANTELSAT 29 Apr 01:07:07 01:10:39 21° 291° (WNW) 01:14:00 437.575/2403.000
NANOSAT C BR1 29 Apr 01:13:19 01:17:10 32° 288° (WNW) 01:20:58 145.865
POPSAT HIP 1 29 Apr 01:18:18 01:22:02 28° 289° (WNW) 01:25:41 437.405
BEESAT 29 Apr 01:21:14 01:24:36 20° 68° (ENE) 01:28:08 436.000
BUGSAT 1 29 Apr 01:23:37 01:27:25 34° 287° (WNW) 01:31:14 437.445
SWISSCUBE 29 Apr 01:24:01 01:27:42 23° 69° (ENE) 01:31:31 437.505
SPROUT 29 Apr 01:26:15 01:30:17 40° 262° (W) 01:34:19 437.525
DUCHIFAT 1 29 Apr 01:47:22 01:49:49 15° 292° (WNW) 01:52:04 145.980
Cosmos 2491 29 Apr 01:50:02 01:52:58 11° 302° (WNW) 01:55:09 435.465 / 435.565
POLYITAN 1 29 Apr 01:51:14 01:53:18 13° 293° (WNW) 01:55:10 437.675
RS-15 29 Apr 02:11:37 02:20:36 25° 256° (WSW) 02:29:08 29.354- 29.394
Cosmos 2504 29 Apr 02:13:09 02:20:24 41° 271° (W) 02:27:06 435.465 / 435.565
AIST 1 29 Apr 02:13:20 02:15:58 15° 288° (WNW) 02:18:26
JUGNU 29 Apr 02:17:09 02:20:39 16° 181° (S) 02:24:07 437.505
TISAT 1 29 Apr 02:20:05 02:22:02 13° 269° (W) 02:23:45 437.305
AIST 2 29 Apr 02:23:25 02:26:09 17° 111° (ESE) 02:29:05 435.215
GONETS M04 29 Apr 02:27:40 02:31:55 15° 61° (ENE) 02:36:48
ITUPSAT 1 29 Apr 02:28:52 02:33:40 80° 258° (WSW) 02:38:29 437.325
BEESAT 3 29 Apr 02:30:50 02:34:54 88° 298° (WNW) 02:39:02 437.485
Oscar 19 29 Apr 02:32:32 02:37:32 46° 99° (E) 02:42:31 437.125/150
SRMSAT 29 Apr 02:34:09 02:37:07 14° 173° (S) 02:40:06 437.500
BEESAT 2 29 Apr 02:36:57 02:41:03 88° 110° (ESE) 02:45:13 435.950
STARS 29 Apr 02:41:42 02:44:00 15° 67° (ENE) 02:46:29 437.465
DANDE 29 Apr 02:49:09 02:50:44 11° 60° (ENE) 02:53:06 436.750
BEESAT 29 Apr 02:57:46 03:02:13 38° 262° (W) 03:06:39 436.000
SWISSCUBE 29 Apr 03:01:07 03:05:26 32° 263° (W) 03:09:41 437.505
ITAMSAT 1 29 Apr 03:15:29 03:20:10 35° 97° (E) 03:24:55 435.822/435.867
CUSAT 1 29 Apr 03:24:58 03:31:28 28° 69° (ENE) 03:38:25 437.405
KKS-1 29 Apr 03:30:01 03:34:27 84° 77° (ENE) 03:38:55 437.445
AIST 2 29 Apr 04:00:30 04:04:29 38° 305° (NW) 04:08:30 435.215
AO-7 29 Apr 04:02:22 04:07:02 17° 90° (E) 04:12:17 29.400- 29.500
Gurwin Techsat 1B 29 Apr 04:06:27 04:11:48 84° 284° (WNW) 04:17:06 435.225
JUGNU 29 Apr 04:06:34 04:08:54 12° 191° (S) 04:11:08 437.505
HORYU 2 29 Apr 04:10:37 04:13:41 19° 93° (E) 04:16:52 437.375
Oscar 19 29 Apr 04:12:52 04:16:35 20° 293° (WNW) 04:20:07 437.125/150
STARS 29 Apr 04:15:53 04:20:06 46° 261° (W) 04:24:21 437.465
GONETS M04 29 Apr 04:21:32 04:30:27 83° 83° (E) 04:39:16
SRMSAT 29 Apr 04:22:09 04:25:31 15° 183° (S) 04:28:53 437.500
MOZHAYETS 4 29 Apr 04:24:48 04:28:08 20° 69° (ENE) 04:31:36
DANDE 29 Apr 04:27:41 04:35:31 61° 78° (ENE) 04:44:01 436.750
Cosmos 2499 29 Apr 04:32:40 04:35:36 13° 61° (ENE) 04:39:00 435.465 / 435.565
JAS-2 29 Apr 04:40:11 04:45:09 28° 92° (E) 04:49:50 435.910
ITAMSAT 1 29 Apr 04:55:18 04:59:32 25° 292° (WNW) 05:03:39 435.822/435.867
CUSAT 1 29 Apr 05:06:45 05:14:41 64° 265° (W) 05:22:48 437.405
M-CUBED/EXP-1 PRIME 29 Apr 05:28:23 05:30:16 13° 61° (ENE) 05:32:24 437.505
HORYU 2 29 Apr 05:46:21 05:50:28 35° 288° (WNW) 05:54:29 437.375
AO-7 29 Apr 05:52:33 06:00:55 86° 287° (WNW) 06:09:17 29.400- 29.500
MOZHAYETS 4 29 Apr 06:00:54 06:05:10 35° 263° (W) 06:09:23
AUBIESAT-1 29 Apr 06:04:55 06:08:48 26° 66° (ENE) 06:12:46 437.475
DANDE 29 Apr 06:11:45 06:18:30 29° 271° (W) 06:25:21 436.750
CUBESAT XI-V 29 Apr 06:11:50 06:15:15 21° 69° (ENE) 06:18:46 437.345
SRMSAT 29 Apr 06:12:36 06:13:55 11° 192° (SSW) 06:15:08 437.500
STRAND 1 29 Apr 06:14:09 06:15:54 12° 64° (ENE) 06:17:58 437.568
GONETS M04 29 Apr 06:20:49 06:26:21 17° 279° (W) 06:31:18
Cosmos 2499 29 Apr 06:22:36 06:30:15 87° 83° (E) 06:37:25 435.465 / 435.565
JAS-2 29 Apr 06:24:56 06:30:23 34° 292° (WNW) 06:35:15 435.910
CUTE-I 29 Apr 06:34:28 06:37:19 15° 90° (E) 06:40:27 437.470
PRISM 29 Apr 06:42:23 06:45:47 25° 71° (ENE) 06:49:15 437.425
Cubesat XI-IV 29 Apr 06:44:36 06:48:18 20° 92° (E) 06:52:11 437.490
CUSAT 1 29 Apr 06:54:51 06:56:26 10° 278° (W) 06:57:14 437.405
M-CUBED/EXP-1 PRIME 29 Apr 06:59:46 07:04:35 75° 254° (WSW) 07:09:25 437.505
AUBIESAT-1 29 Apr 07:39:08 07:43:27 32° 259° (W) 07:47:42 437.475
PCSat 29 Apr 07:41:01 07:46:07 45° 111° (ESE) 07:51:16 145.827
AO-7 29 Apr 07:47:27 07:52:43 18° 305° (NW) 07:57:35 29.400- 29.500
CUBESAT XI-V 29 Apr 07:48:20 07:52:31 33° 264° (W) 07:56:39 437.345
STRAND 1 29 Apr 07:49:27 07:54:34 75° 259° (WSW) 07:59:41 437.568
CUTE-I 29 Apr 08:12:37 08:17:51 58° 287° (WNW) 08:23:04 437.470
O/OREOS (USA 219) 29 Apr 08:14:28 08:18:55 61° 68° (ENE) 08:23:20 437.305
PRISM 29 Apr 08:17:56 08:21:13 22° 265° (W) 08:24:25 437.425
Cosmos 2499 29 Apr 08:19:06 08:22:20 13° 280° (W) 08:24:57 435.465 / 435.565
Cubesat XI-IV 29 Apr 08:23:36 08:28:40 45° 288° (WNW) 08:33:42 437.490
BRITE-PL 29 Apr 08:30:15 08:33:38 17° 91° (E) 08:37:23 437.365/2234.400
HO-68 29 Apr 09:12:32 09:18:17 27° 94° (E) 09:24:13 435.675
PCSat 29 Apr 09:25:23 09:29:46 24° 309° (NW) 09:34:04 145.827
COMPASS 1 29 Apr 09:32:53 09:35:38 18° 92° (E) 09:38:32 437.405
GOMX 1 29 Apr 09:34:28 09:39:35 49° 98° (E) 09:44:54 467.674
ISS 29 Apr 09:48:33 09:49:59 13° 129° (SE) 09:51:33 145.825
DOVE 4 29 Apr 09:51:57 09:57:00 49° 98° (E) 10:02:10 437.250
Cosmos 2491 29 Apr 09:59:01 10:07:35 53° 77° (ENE) 10:16:11 435.465 / 435.565
UWE-3 29 Apr 10:00:51 10:01:28 10° 88° (E) 10:02:25 435.000/436.395/437.385
SEEDS 29 Apr 10:03:37 10:07:46 53° 99° (E) 10:11:52 437.485
BRITE-PL 29 Apr 10:07:16 10:12:25 54° 285° (WNW) 10:17:50 437.365/2234.400
CINEMA 3 29 Apr 10:07:21 10:11:54 34° 96° (E) 10:16:29 145.822/145.860
AAUSAT CUBESAT 2 29 Apr 10:11:08 10:15:07 43° 98° (E) 10:19:05 437.432
Oscar 11 29 Apr 10:14:21 10:17:36 21° 93° (E) 10:20:57 145.826/435.025
CANX-2 29 Apr 10:18:48 10:23:04 72° 284° (WNW) 10:27:17 2200.000
ZACube-1 29 Apr 10:24:53 10:27:36 16° 91° (E) 10:30:30 437.345
ANTELSAT 29 Apr 10:26:38 10:30:12 23° 69° (ENE) 10:33:56 437.575/2403.000
CUTE 1.7 + AOD 2 29 Apr 10:27:20 10:31:34 63° 284° (WNW) 10:35:45 437.475
NANOSAT C BR1 29 Apr 10:30:59 10:31:31 10° 66° (ENE) 10:32:19 145.865
POPSAT HIP 1 29 Apr 10:35:04 10:36:33 12° 67° (ENE) 10:38:16 437.405
BEESAT 3 29 Apr 10:52:33 10:55:56 25° 51° (NE) 10:59:19 437.485
DX 1 29 Apr 10:55:00 10:57:59 18° 93° (E) 11:01:07 434.975-435.025
DELFI C3 29 Apr 10:55:43 10:59:37 47° 99° (E) 11:03:30 145.870
SO-50 29 Apr 10:56:06 11:00:32 49° 116° (ESE) 11:05:10 436.795
YUBILEINY 29 Apr 10:59:09 11:07:45 62° 92° (E) 11:16:25 435.215
BEESAT 2 29 Apr 10:59:13 11:02:35 24° 51° (NE) 11:05:59 435.950
HO-68 29 Apr 10:59:25 11:06:21 52° 291° (WNW) 11:13:12 435.675
DUCHIFAT 1 29 Apr 11:00:42 11:03:59 23° 70° (ENE) 11:07:22 145.980
AISAT 29 Apr 11:03:56 11:04:09 10° 89° (E) 11:04:43 437.250
POLYITAN 1 29 Apr 11:04:29 11:08:01 27° 71° (ENE) 11:11:39 437.675
COMPASS 1 29 Apr 11:07:41 11:11:26 31° 287° (WNW) 11:15:06 437.405
GOMX 1 29 Apr 11:13:34 11:17:24 20° 291° (WNW) 11:21:10 467.674
TIGRISAT 29 Apr 11:13:45 11:18:16 75° 77° (ENE) 11:22:55 435.000
CUBEBUG 2 29 Apr 11:16:12 11:21:01 84° 286° (WNW) 11:25:44 437.445
